period_start,C,m1,H,J0,J1,J2,J3,J4,J5,JA,JB,JC,JD,JJ,JK,JN,#
2014-11-28 00:03:37,0.17,3.22,0.00,23.55,28.23,31.33,4.84,26.48,1026.44,2025.94,2323.24,2491.20,2701.67,350.08,350.57,15.06,0000 0000 0000 0000 000000
2014-11-28 00:08:38,0.17,3.23,0.00,23.57,28.24,31.34,4.79,26.51,1026.40,2025.97,2321.89,2490.25,2700.63,349.39,349.75,15.09,0000 0000 0000 0000 000000
2014-11-28 00:13:39,0.16,3.23,0.00,23.58,28.24,31.34,4.85,26.62,1026.41,2025.96,2320.60,2489.26,2699.63,349.82,350.18,15.12,0000 0000 0000 0000 000000
2014-11-28 00:18:41,0.17,3.24,0.00,23.55,28.25,31.35,4.86,26.66,1026.45,2025.98,2319.29,2488.27,2698.50,349.82,350.45,15.14,0000 0000 0000 0000 000000
2014-11-28 00:23:42,0.16,3.24,0.00,23.59,28.25,31.34,4.88,26.49,1026.48,2025.96,2317.88,2487.29,2697.46,350.51,350.89,15.17,0000 0000 0000 0000 000000
2014-11-28 00:28:43,0.16,3.25,0.00,23.56,28.25,31.32,4.81,26.62,1026.54,2025.97,2316.50,2486.21,2696.44,349.71,350.13,15.20,0000 0000 0000 0000 000000
2014-11-28 00:33:44,0.15,3.25,0.00,23.58,28.25,31.34,4.84,26.63,1026.40,2025.96,2315.24,2485.31,2695.43,350.08,350.41,15.23,0000 0000 0000 0000 000000
2014-11-28 00:38:45,0.17,3.25,0.00,23.56,28.25,31.33,4.81,26.68,1026.39,2025.97,2313.83,2484.38,2694.43,350.00,350.36,15.26,0000 0000 0000 0000 000000
2014-11-28 00:43:46,0.17,3.26,0.00,23.57,28.25,31.35,4.71,26.70,1026.39,2025.95,2312.57,2483.34,2693.30,349.38,349.63,15.29,0000 0000 0000 0000 000000
2014-11-28 00:48:47,0.15,3.27,0.00,23.57,28.25,31.37,4.74,26.54,1026.39,2025.94,2311.28,2482.32,2692.21,349.36,349.79,15.32,0000 0000 0000 0000 000000
2014-11-28 00:53:49,0.15,3.27,0.00,23.56,28.25,31.36,4.87,26.78,1026.39,2025.93,2309.98,2481.42,2691.16,350.36,350.75,15.35,0000 0000 0000 0000 000000
2014-11-28 00:58:50,0.18,3.27,0.00,23.58,28.25,31.39,4.78,26.59,1026.39,2025.96,2308.71,2480.53,2690.23,350.00,350.44,15.38,0000 0000 0000 0000 000000
2014-11-28 01:03:51,0.15,3.28,0.00,23.60,28.26,31.36,4.92,26.69,1026.40,2025.95,2307.49,2479.62,2689.10,350.16,350.46,15.41,0000 0000 0000 0000 000000
2014-11-28 01:08:53,0.15,3.28,0.00,23.58,28.26,31.37,4.85,26.58,1026.39,2025.94,2306.16,2478.58,2688.11,350.82,351.17,15.44,0000 0000 0000 0000 000000
2014-11-28 01:13:54,0.16,3.29,0.00,23.56,28.27,31.36,4.89,26.67,1026.39,2025.93,2304.86,2477.68,2687.10,350.17,350.66,15.47,0000 0000 0000 0000 000000
2014-11-28 01:18:55,0.17,3.29,0.00,23.58,28.27,31.38,4.86,26.64,1026.39,2025.96,2303.59,2476.73,2686.18,350.44,350.75,15.50,0000 0000 0000 0000 000000
2014-11-28 01:23:56,0.15,3.30,0.00,23.60,28.27,31.38,4.88,26.63,1026.39,2025.95,2302.42,2475.76,2685.12,350.18,350.32,15.53,0000 0000 0000 0000 000000
2014-11-28 01:28:58,0.15,3.30,0.00,23.55,28.27,31.37,4.85,26.59,1026.38,2025.96,2301.11,2474.82,2684.07,350.11,350.51,15.55,0000 0000 0000 0000 000000
2014-11-28 01:33:59,0.15,3.31,0.00,23.59,28.27,31.39,4.92,26.70,1026.38,2025.98,2299.83,2473.89,2683.09,350.21,350.54,15.58,0000 0000 0000 0000 000000
2014-11-28 01:39:00,0.19,3.31,0.00,23.58,28.27,31.39,4.90,26.89,1026.38,2025.95,2298.45,2472.81,2681.93,349.84,350.14,15.61,0000 0000 0000 0000 000000
2014-11-28 01:44:02,0.14,3.32,0.00,23.57,28.27,31.40,4.90,26.80,1026.38,2025.95,2297.17,2471.88,2680.92,350.04,350.15,15.64,0000 0000 0000 0000 000000
2014-11-28 01:49:03,0.17,3.32,0.00,23.51,28.27,31.41,4.79,26.79,1026.38,2025.97,2295.89,2470.90,2679.90,349.92,350.35,15.67,0000 0000 0000 0000 000000
2014-11-28 01:54:04,0.16,3.33,0.00,23.54,28.27,31.40,4.84,26.76,1026.38,2025.97,2294.56,2469.99,2678.85,350.01,350.38,15.70,0000 0000 0000 0000 000000
2014-11-28 01:59:05,0.15,3.33,0.00,23.56,28.27,31.38,4.91,26.81,1026.38,2025.98,2293.37,2469.04,2677.84,350.59,350.67,15.73,0000 0000 0000 0000 000000
2014-11-28 02:04:06,0.17,3.34,0.00,23.58,28.27,31.40,4.85,26.69,1026.38,2025.97,2292.01,2468.05,2676.74,349.71,350.14,15.76,0000 0000 0000 0000 000000
2014-11-28 02:09:07,0.16,3.34,0.00,23.58,28.27,31.37,4.88,26.70,1026.36,2025.97,2290.76,2467.11,2675.81,350.28,350.49,15.79,0000 0000 0000 0000 000000
2014-11-28 02:14:08,0.17,3.35,0.00,23.53,28.27,31.40,4.83,26.82,1026.30,2025.99,2289.51,2466.17,2674.78,349.72,350.09,15.82,0000 0000 0000 0000 000000
2014-11-28 02:19:09,0.16,3.35,0.00,23.57,28.27,31.40,4.96,26.72,1026.35,2025.99,2288.20,2465.17,2673.64,350.44,350.84,15.85,0000 0000 0000 0000 000000
2014-11-28 02:24:10,0.17,3.36,0.00,23.57,28.27,31.39,4.88,26.70,1026.27,2025.99,2286.88,2464.18,2672.65,350.03,350.34,15.88,0000 0000 0000 0000 000000
2014-11-28 02:29:12,0.18,3.36,0.00,23.53,28.27,31.40,4.78,26.61,1026.33,2025.98,2285.49,2463.17,2671.48,349.81,350.40,15.91,0000 0000 0000 0000 000000
2014-11-28 02:34:13,0.16,3.37,0.00,23.55,28.27,31.40,4.74,26.63,1026.23,2025.99,2284.19,2462.20,2670.45,349.52,349.85,15.93,0000 0000 0000 0000 000000
2014-11-28 02:39:14,0.19,3.37,0.00,23.56,28.26,31.40,4.87,26.78,1026.19,2025.98,2282.74,2461.19,2669.32,350.15,350.45,15.96,0000 0000 0000 0000 000000
2014-11-28 02:44:15,0.16,3.38,0.00,23.57,28.26,31.39,4.86,26.71,1026.23,2025.99,2281.51,2460.14,2668.21,350.46,350.80,15.99,0000 0000 0000 0000 000000
2014-11-28 02:49:17,0.16,3.38,0.00,23.56,28.25,31.38,4.93,26.73,1026.23,2025.98,2280.23,2459.17,2667.17,350.68,351.05,16.02,0000 0000 0000 0000 000000
2014-11-28 02:54:17,0.21,3.39,0.00,23.53,28.25,31.39,4.75,26.76,1026.18,2025.99,2278.66,2458.03,2665.92,349.82,350.10,16.05,0000 0000 0000 0000 000000
2014-11-28 02:59:19,0.25,3.40,0.00,23.53,28.25,31.41,4.80,26.70,1026.25,2025.98,2276.92,2456.65,2664.51,349.77,350.12,16.08,0000 0000 0000 0000 000000
2014-11-28 03:04:20,0.18,3.40,0.00,23.55,28.25,31.39,4.86,26.87,1026.30,2025.98,2275.38,2455.55,2663.34,350.26,350.60,16.11,0000 0000 0000 0000 000000
2014-11-28 03:09:21,0.18,3.41,0.00,23.51,28.25,31.38,4.88,26.76,1026.35,2025.98,2273.91,2454.47,2662.13,350.34,350.70,16.14,0000 0000 0000 0000 000000
2014-11-28 03:14:22,0.17,3.41,0.00,23.52,28.25,31.39,4.77,26.71,1026.37,2025.99,2272.57,2453.50,2661.07,349.63,350.11,16.17,0000 0000 0000 0000 000000
2014-11-28 03:19:24,0.16,3.42,0.00,23.55,28.25,31.39,4.74,26.63,1026.38,2025.99,2271.35,2452.52,2659.99,349.37,349.63,16.20,0000 0000 0000 0000 000000
2014-11-28 03:24:25,0.16,3.42,0.00,23.54,28.25,31.40,4.78,26.73,1026.38,2025.98,2269.96,2451.57,2658.95,349.70,349.87,16.23,0000 0000 0000 0000 000000
2014-11-28 03:29:26,0.19,3.43,0.00,23.57,28.25,31.39,4.87,26.67,1026.37,2025.99,2268.63,2450.53,2657.81,350.29,350.77,16.26,0000 0000 0000 0000 000000
2014-11-28 03:34:27,0.15,3.43,0.00,23.61,28.25,31.37,4.80,26.65,1026.38,2025.98,2267.41,2449.60,2656.79,349.60,349.97,16.29,0000 0000 0000 0000 000000
2014-11-28 03:39:28,0.18,3.44,0.00,23.61,28.25,31.37,4.87,26.78,1026.38,2025.99,2265.98,2448.58,2655.71,350.14,350.48,16.32,0000 0000 0000 0000 000000
2014-11-28 03:44:30,0.16,3.44,0.00,23.63,28.25,31.36,4.84,26.62,1026.38,2025.99,2264.73,2447.63,2654.64,349.95,350.41,16.35,0000 0000 0000 0000 000000
2014-11-28 03:49:31,0.17,3.45,0.00,23.59,28.25,31.36,4.88,26.68,1026.38,2025.98,2263.47,2446.66,2653.57,350.38,350.70,16.37,0000 0000 0000 0000 000000
2014-11-28 03:54:32,0.17,3.45,0.00,23.55,28.25,31.39,4.84,26.73,1026.35,2025.99,2261.99,2445.67,2652.43,350.36,350.68,16.40,0000 0000 0000 0000 000000
2014-11-28 03:59:33,0.17,3.46,0.00,23.49,28.25,31.39,4.75,26.74,1026.38,2025.99,2260.71,2444.74,2651.35,349.64,350.09,16.43,0000 0000 0000 0000 000000
2014-11-28 04:04:34,0.17,3.46,0.00,23.42,28.23,31.38,4.86,26.79,1026.38,2025.99,2259.43,2443.72,2650.31,349.92,350.45,16.46,0000 0000 0000 0000 000000
2014-11-28 04:09:35,0.15,3.47,0.00,23.36,28.22,31.36,4.84,26.84,1026.38,2025.99,2258.03,2442.77,2649.24,349.99,350.71,16.49,0000 0000 0000 0000 000000
2014-11-28 04:14:36,0.18,3.47,0.00,23.30,28.22,31.30,4.83,26.83,1026.38,2025.99,2256.74,2441.79,2648.22,349.76,350.34,16.52,0000 0000 0000 0000 000000
2014-11-28 04:19:37,0.14,3.48,0.00,23.26,28.21,31.28,4.83,26.75,1026.38,2025.99,2255.50,2440.87,2647.26,349.79,350.64,16.55,0000 0000 0000 0000 000000
2014-11-28 04:24:38,0.14,3.48,0.00,23.17,28.20,31.23,4.84,26.73,1026.38,2025.99,2254.24,2440.00,2646.20,349.98,350.78,16.58,0000 0000 0000 0000 000000
2014-11-28 04:29:39,0.16,3.49,0.00,23.13,28.19,31.21,4.80,26.71,1026.39,2025.99,2253.01,2439.11,2645.25,349.79,350.65,16.61,0000 0000 0000 0000 000000
2014-11-28 04:34:40,0.18,3.49,0.00,23.11,28.17,31.17,4.84,26.63,1026.38,2026.00,2251.76,2438.22,2644.32,349.76,350.82,16.64,0000 0000 0000 0000 000000
2014-11-28 04:39:41,0.17,3.50,0.00,23.05,28.16,31.12,4.78,26.79,1026.38,2026.00,2250.50,2437.31,2643.33,349.77,351.11,16.67,0000 0000 0000 0000 000000
2014-11-28 04:44:43,0.14,3.50,0.00,23.00,28.14,31.07,4.77,26.62,1026.37,2026.01,2249.33,2436.49,2642.42,350.00,351.02,16.70,0000 0000 0000 0000 000000
2014-11-28 04:49:44,0.25,3.51,0.00,22.93,28.12,31.05,4.84,26.70,1026.38,2026.04,2247.46,2435.20,2641.01,349.70,350.92,16.73,0000 0000 0000 0000 000000
2014-11-28 04:54:45,0.35,3.52,0.00,22.88,28.10,31.01,4.88,26.71,1026.38,2026.29,2245.22,2433.59,2639.38,349.64,350.86,16.75,0000 0000 0000 0000 000000
2014-11-28 04:59:46,0.29,3.53,0.00,22.83,28.07,30.97,4.81,26.68,1026.38,2026.81,2243.41,2432.35,2637.98,349.45,350.85,16.78,0000 0000 0000 0000 000000
2014-11-28 05:04:47,0.23,3.53,0.00,22.78,28.05,30.96,4.86,26.67,1026.37,2026.91,2241.81,2431.30,2636.65,349.82,351.23,16.81,0000 0000 0000 0000 000000
2014-11-28 05:09:48,0.29,3.54,0.00,22.73,28.02,30.93,4.91,26.76,1026.36,2026.97,2239.75,2429.75,2635.07,350.65,351.86,16.84,0000 0000 0000 0000 000000
2014-11-28 05:14:49,0.23,3.55,0.00,22.67,27.99,30.88,4.80,26.74,1026.36,2026.98,2237.90,2428.32,2633.50,349.80,351.21,16.87,0000 0000 0000 0000 000000
2014-11-28 05:19:50,0.19,3.56,0.00,22.63,27.96,30.85,4.85,26.63,1026.37,2026.99,2236.15,2427.06,2632.11,350.11,351.46,16.90,0000 0000 0000 0000 000000
2014-11-28 05:24:52,0.22,3.56,0.00,22.57,27.93,30.82,4.96,26.81,1026.36,2026.99,2234.57,2425.95,2630.92,350.08,351.51,16.93,0000 0000 0000 0000 000000
2014-11-28 05:29:53,0.19,3.57,0.00,22.53,27.89,30.75,4.88,26.86,1026.31,2027.01,2233.02,2424.89,2629.75,349.70,351.26,16.96,0000 0000 0000 0000 000000
2014-11-28 05:34:54,0.20,3.57,0.00,22.48,27.86,30.70,4.89,26.81,1026.33,2027.04,2231.65,2423.88,2628.68,349.94,351.64,16.99,0000 0000 0000 0000 000000
2014-11-28 05:39:55,0.31,3.58,0.00,22.42,27.82,30.66,4.85,26.82,1026.28,2027.21,2229.85,2422.62,2627.38,349.75,351.36,17.02,0000 0000 0000 0000 000000
2014-11-28 05:44:56,0.37,3.59,0.00,22.36,27.79,30.60,4.90,26.86,1026.20,2027.86,2227.87,2421.20,2625.74,350.05,351.63,17.05,0000 0000 0000 0000 000000
2014-11-28 05:49:57,0.24,3.60,0.00,22.32,27.75,30.61,4.78,26.83,1026.20,2027.96,2225.90,2419.83,2624.29,349.74,351.57,17.08,0000 0000 0000 0000 000000
2014-11-28 05:54:58,0.18,3.61,0.00,22.27,27.71,30.53,4.87,26.83,1026.24,2027.99,2224.54,2418.82,2623.21,350.26,352.11,17.11,0000 0000 0000 0000 000000
2014-11-28 06:00:00,0.15,3.61,0.00,22.22,27.67,30.50,4.84,26.87,1026.08,2027.99,2223.21,2417.93,2622.44,349.82,351.64,17.14,0000 0000 0000 0000 000000
2014-11-28 06:05:01,0.19,3.62,0.00,22.17,27.63,30.45,4.87,26.93,1026.03,2027.99,2221.74,2416.89,2621.38,349.81,351.56,17.16,0000 0000 0000 0000 000000
2014-11-28 06:10:03,0.20,3.62,0.00,22.14,27.59,30.42,4.91,26.82,1026.02,2028.01,2220.13,2415.82,2620.14,350.37,352.28,17.19,0000 0000 0000 0000 000000
2014-11-28 06:15:04,0.27,3.63,0.00,22.10,27.55,30.38,4.92,26.90,1025.94,2028.10,2218.37,2414.59,2618.85,350.26,352.26,17.22,0000 0000 0000 0000 000000
2014-11-28 06:20:05,0.39,3.64,0.00,22.05,27.51,30.31,4.95,26.84,1025.92,2028.71,2216.33,2413.17,2617.39,350.07,352.00,17.25,0000 0000 0000 0000 000000
2014-11-28 06:25:06,0.24,3.65,0.00,22.00,27.47,30.26,4.78,26.74,1025.94,2028.98,2214.37,2411.87,2615.95,349.52,351.68,17.28,0000 0000 0000 0000 000000
2014-11-28 06:30:08,0.25,3.66,0.00,21.95,27.43,30.22,4.85,26.85,1025.91,2028.99,2212.69,2410.63,2614.63,349.58,351.88,17.31,0000 0000 0000 0000 000000
2014-11-28 06:35:09,0.20,3.66,0.00,21.92,27.39,30.22,4.72,26.72,1025.90,2028.99,2211.07,2409.47,2613.41,349.74,351.89,17.34,0000 0000 0000 0000 000000
2014-11-28 06:40:10,0.19,3.67,0.00,21.88,27.34,30.16,4.91,26.94,1025.91,2029.02,2209.56,2408.50,2612.38,350.00,352.02,17.37,0000 0000 0000 0000 000000
2014-11-28 06:45:11,0.25,3.68,0.00,21.85,27.30,30.13,4.87,26.82,1025.90,2029.21,2207.89,2407.40,2611.11,350.05,352.22,17.40,0000 0000 0000 0000 000000
2014-11-28 06:50:12,0.34,3.69,0.00,21.80,27.26,30.07,4.89,26.83,1025.90,2029.83,2206.04,2406.16,2609.76,349.99,352.18,17.43,0000 0000 0000 0000 000000
2014-11-28 06:55:14,0.20,3.69,0.00,21.77,27.21,30.05,4.92,26.94,1025.90,2029.98,2204.53,2405.12,2608.66,350.19,352.44,17.46,0000 0000 0000 0000 000000
2014-11-28 07:00:15,0.23,3.70,0.00,21.73,27.17,29.97,4.92,26.95,1025.90,2029.99,2202.82,2403.93,2607.38,350.45,352.63,17.49,0000 0000 0000 0000 000000
2014-11-28 07:05:16,0.21,3.71,0.00,21.70,27.13,29.94,4.77,26.80,1025.90,2030.00,2201.15,2402.83,2606.08,349.42,352.05,17.52,0000 0000 0000 0000 000000
2014-11-28 07:10:17,0.30,3.71,0.00,21.68,27.09,29.91,4.87,26.91,1025.90,2030.01,2198.98,2401.37,2604.60,350.04,352.28,17.55,0000 0000 0000 0000 000000
2014-11-28 07:15:18,0.37,3.72,0.00,21.64,27.05,29.88,4.85,26.80,1025.90,2030.11,2196.40,2399.63,2602.77,350.10,352.65,17.57,0000 0000 0000 0000 000000
2014-11-28 07:20:19,0.37,3.74,0.00,21.62,27.01,29.79,4.91,26.93,1025.90,2030.50,2194.15,2397.94,2600.98,350.44,352.95,17.60,0000 0000 0000 0000 000000
2014-11-28 07:25:20,0.34,3.75,0.00,21.58,26.96,29.79,4.98,26.95,1025.90,2030.91,2192.09,2396.56,2599.51,350.45,353.04,17.63,0000 0000 0000 0000 000000
2014-11-28 07:30:21,0.22,3.75,0.00,21.54,26.92,29.73,4.87,26.88,1025.91,2030.98,2190.15,2395.27,2598.11,349.84,352.50,17.66,0000 0000 0000 0000 000000
2014-11-28 07:35:22,0.20,3.76,0.00,21.50,26.88,29.73,4.94,26.95,1025.92,2030.99,2188.49,2394.21,2596.90,350.08,352.91,17.69,0000 0000 0000 0000 000000
2014-11-28 07:40:23,0.20,3.77,0.00,21.45,26.84,29.69,4.89,26.95,1025.92,2031.01,2186.96,2393.15,2595.76,350.19,352.95,17.72,0000 0000 0000 0000 000000
2014-11-28 07:45:25,0.27,3.77,0.00,21.43,26.80,29.68,4.86,26.88,1025.94,2031.14,2185.33,2392.02,2594.60,349.74,352.54,17.75,0000 0000 0000 0000 000000
2014-11-28 07:50:25,0.38,3.78,0.00,21.40,26.76,29.61,4.86,26.93,1025.95,2031.48,2183.03,2390.49,2592.91,349.83,352.46,17.78,0000 0000 0000 0000 000000
2014-11-28 07:55:27,0.32,3.79,0.00,21.34,26.72,29.57,5.01,27.12,1025.98,2031.92,2180.88,2389.01,2591.39,350.26,353.18,17.81,0000 0000 0000 0000 000000
2014-11-28 08:00:27,0.22,3.80,0.00,21.32,26.68,29.52,4.81,26.95,1026.01,2031.99,2179.12,2387.85,2590.03,349.89,352.71,17.84,0000 0000 0000 0000 000000
2014-11-28 08:05:29,0.26,3.81,0.00,21.28,26.64,29.51,4.88,26.99,1026.04,2031.99,2177.33,2386.61,2588.71,350.11,353.07,17.87,0000 0000 0000 0000 000000
2014-11-28 08:10:30,0.19,3.81,0.00,21.25,26.60,29.46,4.96,27.02,1026.11,2031.99,2175.78,2385.61,2587.67,350.07,353.18,17.90,0000 0000 0000 0000 000000
2014-11-28 08:15:31,0.18,3.82,0.00,21.21,26.57,29.43,4.89,27.01,1026.32,2032.02,2174.45,2384.65,2586.61,350.33,353.20,17.93,0000 0000 0000 0000 000000
2014-11-28 08:20:33,0.27,3.83,0.00,21.16,26.53,29.43,4.85,27.01,1026.35,2032.22,2172.41,2383.28,2585.13,350.10,353.38,17.96,0000 0000 0000 0000 000000
2014-11-28 08:25:34,0.38,3.84,0.00,21.14,26.49,29.37,4.91,27.07,1026.26,2032.61,2170.44,2381.85,2583.66,350.74,353.80,17.99,0000 0000 0000 0000 000000
2014-11-28 08:30:35,0.30,3.85,0.00,21.10,26.46,29.32,4.80,27.06,1026.08,2032.94,2168.45,2380.54,2582.27,349.39,352.56,18.01,0000 0000 0000 0000 000000
2014-11-28 08:35:36,0.26,3.85,0.00,21.06,26.41,29.27,4.84,27.11,1026.01,2032.98,2166.44,2379.21,2580.77,349.95,353.07,18.04,0000 0000 0000 0000 000000
2014-11-28 08:40:37,0.28,3.86,0.00,21.05,26.38,29.27,4.89,27.23,1025.93,2032.99,2164.20,2377.64,2579.20,350.04,353.40,18.07,0000 0000 0000 0000 000000
2014-11-28 08:45:38,0.16,3.87,0.00,21.00,26.34,29.23,4.91,27.21,1025.90,2033.00,2162.82,2376.80,2578.23,349.96,353.23,18.10,0000 0000 0000 0000 000000
2014-11-28 08:50:39,0.16,3.87,0.00,20.98,26.30,29.20,4.88,27.23,1025.90,2033.04,2161.66,2376.03,2577.31,349.89,353.37,18.13,0000 0000 0000 0000 000000
2014-11-28 08:55:41,0.22,3.88,0.00,20.93,26.26,29.15,4.92,27.36,1025.90,2033.27,2160.53,2375.26,2576.61,350.12,353.39,18.16,0000 0000 0000 0000 000000
2014-11-28 09:00:42,0.20,3.88,0.00,20.89,26.22,29.09,4.93,27.18,1025.89,2033.75,2159.57,2374.73,2575.97,350.23,353.63,18.19,0000 0000 0000 0000 000000
2014-11-28 09:05:43,0.13,3.89,0.00,20.84,26.18,29.06,4.84,27.04,1025.89,2033.97,2158.66,2374.03,2575.12,349.27,352.63,18.22,0000 0000 0000 0000 000000
2014-11-28 09:10:45,0.13,3.89,0.00,20.80,26.15,29.04,4.96,27.20,1025.89,2033.99,2157.81,2373.47,2574.63,350.64,354.25,18.25,0000 0000 0000 0000 000000
2014-11-28 09:15:46,0.05,3.90,0.00,20.76,26.11,29.01,4.98,27.24,1025.86,2033.99,2156.98,2373.00,2574.00,350.36,353.60,18.28,0000 0000 0000 0000 000000
2014-11-28 09:20:47,0.16,3.90,0.00,20.72,26.07,28.94,4.92,27.34,1025.76,2034.02,2156.10,2372.41,2573.37,350.64,354.41,18.31,0000 0000 0000 0000 000000
2014-11-28 09:25:48,0.11,3.90,0.00,20.71,26.03,28.92,4.84,27.10,1025.70,2034.08,2155.12,2371.82,2572.79,349.93,353.59,18.34,0000 0000 0000 0000 000000
2014-11-28 09:30:49,0.34,3.91,0.00,20.66,25.99,28.86,4.83,27.23,1025.81,2034.54,2153.67,2370.81,2571.76,349.62,353.20,18.37,0000 0000 0000 0000 000000
2014-11-28 09:35:50,0.32,3.92,0.00,20.62,25.95,28.84,4.87,27.17,1025.79,2034.92,2151.60,2369.41,2570.24,350.29,354.06,18.39,0000 0000 0000 0000 000000
2014-11-28 09:40:51,0.22,3.93,0.00,20.58,25.91,28.80,4.95,27.28,1025.62,2034.98,2149.78,2368.26,2569.00,350.15,353.72,18.42,0000 0000 0000 0000 000000
2014-11-28 09:45:53,0.21,3.94,0.00,20.55,25.88,28.74,4.78,27.23,1025.61,2034.99,2148.23,2367.20,2567.80,349.41,353.08,18.45,0000 0000 0000 0000 000000
2014-11-28 09:50:54,0.35,3.94,0.00,20.53,25.84,28.72,4.79,27.30,1025.77,2035.00,2145.77,2365.65,2566.02,349.57,353.40,18.48,0000 0000 0000 0000 000000
2014-11-28 09:55:56,0.28,3.95,0.00,20.49,25.80,28.74,4.85,27.16,1025.89,2035.08,2143.58,2364.16,2564.46,349.36,353.30,18.51,0000 0000 0000 0000 000000
2014-11-28 10:00:57,0.29,3.96,0.00,20.45,25.76,28.68,4.85,27.07,1025.87,2035.51,2142.00,2363.10,2563.27,349.35,353.37,18.54,0000 0000 0000 0000 000000
2014-11-28 10:05:58,0.24,3.97,0.00,20.42,25.73,28.68,4.96,27.12,1025.89,2035.92,2140.66,2362.15,2562.32,350.39,354.25,18.57,0000 0000 0000 0000 000000
2014-11-28 10:10:59,0.21,3.98,0.00,20.39,25.69,28.64,4.92,27.10,1025.89,2035.97,2139.07,2361.05,2561.11,350.19,354.16,18.60,0000 0000 0000 0000 000000
2014-11-28 10:16:00,0.22,3.98,0.00,20.36,25.66,28.59,4.95,27.23,1025.87,2035.99,2137.48,2359.94,2559.88,350.12,354.23,18.63,0000 0000 0000 0000 000000
2014-11-28 10:21:02,0.16,3.99,0.00,20.33,25.62,28.52,4.97,27.19,1025.85,2036.01,2136.10,2358.95,2558.98,350.87,354.86,18.66,0000 0000 0000 0000 000000
2014-11-28 10:26:03,0.42,4.00,0.00,20.31,25.58,28.54,4.87,27.17,1025.85,2036.01,2133.93,2357.14,2557.17,350.01,354.06,18.69,0000 0000 0000 0000 000000
2014-11-28 10:31:04,0.22,4.01,0.00,20.30,25.55,28.47,4.88,27.20,1025.80,2036.11,2131.99,2355.62,2555.64,349.89,353.89,18.72,0000 0000 0000 0000 000000
2014-11-28 10:36:05,0.28,4.01,0.00,20.28,25.51,28.44,4.88,27.14,1025.58,2036.43,2130.68,2354.67,2554.58,349.70,353.77,18.75,0000 0000 0000 0000 000000
2014-11-28 10:41:06,0.46,4.02,0.00,20.25,25.48,28.39,4.93,27.35,1025.45,2036.70,2127.67,2352.85,2552.61,350.47,354.29,18.78,0000 0000 0000 0000 000000
2014-11-28 10:46:08,0.62,4.04,0.00,20.21,25.45,28.37,4.87,27.07,1025.42,2036.97,2123.64,2350.29,2549.97,349.67,353.79,18.80,0000 0000 0000 0000 000000
2014-11-28 10:51:09,0.77,4.06,0.00,20.15,25.41,28.33,4.90,27.14,1025.41,2036.99,2118.57,2346.35,2545.79,350.01,354.10,18.83,0000 0000 0000 0000 000000
2014-11-28 10:56:10,0.64,4.09,0.00,20.14,25.38,28.27,4.90,27.15,1025.41,2036.99,2113.97,2342.39,2541.65,350.04,354.27,18.86,0000 0000 0000 0000 000000
2014-11-28 11:01:11,0.34,4.10,0.97,20.13,25.35,28.31,4.91,27.19,1025.41,2036.99,2111.28,2340.31,2539.46,349.37,353.57,18.89,0000 0000 0000 0000 000000
2014-11-28 11:06:12,0.46,4.11,1.00,20.10,25.31,28.26,4.88,27.10,1025.41,2037.03,2108.39,2338.19,2537.23,349.80,353.94,18.92,0000 0000 0000 0000 000000
2014-11-28 11:11:14,0.46,4.12,1.00,20.07,25.28,28.25,4.79,27.12,1025.41,2037.11,2105.06,2335.88,2534.75,349.82,354.01,18.95,0000 0000 0000 0000 000000
2014-11-28 11:16:15,0.50,4.14,1.00,20.05,25.25,28.18,4.94,27.07,1025.41,2037.53,2102.08,2333.71,2532.54,349.98,354.21,18.98,0000 0000 0000 0000 000000
2014-11-28 11:21:16,0.48,4.15,1.00,20.01,25.21,28.19,4.92,27.18,1025.41,2037.90,2099.11,2331.61,2530.30,350.00,354.60,19.01,0000 0000 0000 0000 000000
2014-11-28 11:26:17,0.38,4.17,1.00,19.98,25.18,28.14,4.91,27.16,1025.41,2037.98,2096.38,2329.67,2528.29,350.08,354.53,19.04,0000 0000 0000 0000 000000
2014-11-28 11:31:18,0.36,4.18,0.00,19.94,25.15,28.13,4.78,27.00,1025.41,2037.99,2093.77,2327.84,2526.29,349.43,353.67,19.07,0000 0000 0000 0000 000000
2014-11-28 11:36:20,0.33,4.19,0.00,19.94,25.12,28.09,4.96,27.18,1025.41,2037.99,2091.34,2326.12,2524.44,350.23,354.54,19.10,0000 0000 0000 0000 000000
2014-11-28 11:41:21,0.32,4.20,0.00,19.90,25.09,28.01,5.00,27.13,1025.41,2038.00,2088.99,2324.45,2522.71,350.68,354.89,19.13,0000 0000 0000 0000 000000
2014-11-28 11:46:22,0.30,4.20,0.00,19.88,25.06,28.01,4.76,27.12,1025.41,2038.04,2086.95,2323.03,2521.18,349.60,353.97,19.16,0000 0000 0000 0000 000000
2014-11-28 11:51:23,0.36,4.21,0.00,19.87,25.03,28.00,4.93,27.12,1025.41,2038.23,2084.73,2321.46,2519.51,350.55,355.15,19.19,0000 0000 0000 0000 000000
2014-11-28 11:56:25,0.36,4.23,0.00,19.83,25.00,27.97,4.86,27.10,1025.41,2038.56,2082.62,2319.84,2517.80,349.50,353.99,19.22,0000 0000 0000 0000 000000
2014-11-28 12:01:26,0.35,4.24,0.00,19.81,24.97,27.95,4.83,27.15,1025.41,2038.94,2080.36,2318.40,2516.32,349.67,354.35,19.24,0000 0000 0000 0000 000000
2014-11-28 12:06:27,0.22,4.25,0.00,19.80,24.94,27.91,4.99,27.27,1025.41,2038.97,2078.60,2317.13,2514.98,349.90,354.33,19.27,0000 0000 0000 0000 000000
2014-11-28 12:11:28,0.23,4.25,0.00,19.78,24.91,27.89,4.81,27.07,1025.41,2038.99,2077.03,2316.05,2513.77,350.10,354.63,19.30,0000 0000 0000 0000 000000
2014-11-28 12:16:30,0.19,4.26,0.00,19.76,24.89,27.82,4.80,27.01,1025.41,2039.00,2075.63,2315.03,2512.76,349.35,353.81,19.33,0000 0000 0000 0000 000000
2014-11-28 12:21:31,0.18,4.26,0.00,19.76,24.86,27.83,4.94,27.15,1025.32,2039.03,2074.35,2314.12,2511.82,350.23,354.78,19.36,0000 0000 0000 0000 000000
2014-11-28 12:26:32,0.19,4.27,0.00,19.71,24.83,27.80,4.83,26.95,1025.17,2039.04,2073.08,2313.18,2510.79,349.59,354.36,19.39,0000 0000 0000 0000 000000
2014-11-28 12:31:34,0.41,4.28,0.00,19.71,24.81,27.83,4.89,27.14,1025.11,2039.30,2071.02,2311.65,2509.18,350.14,354.77,19.42,0000 0000 0000 0000 000000
2014-11-28 12:36:35,0.48,4.29,0.00,19.69,24.78,27.76,4.84,27.03,1025.12,2039.69,2068.39,2309.65,2507.08,349.82,354.24,19.45,0000 0000 0000 0000 000000
2014-11-28 12:41:36,0.52,4.31,0.00,19.68,24.75,27.78,4.96,27.24,1025.11,2039.85,2065.44,2307.16,2504.43,350.58,355.15,19.48,0000 0000 0000 0000 000000
2014-11-28 12:46:37,0.78,4.33,0.00,19.68,24.73,27.75,4.93,27.13,1024.96,2039.98,2061.14,2303.37,2500.44,350.04,354.29,19.51,0000 0000 0000 0000 000000
2014-11-28 12:51:38,0.59,4.35,0.00,19.68,24.70,27.70,4.95,27.23,1024.92,2039.99,2057.08,2299.86,2496.76,350.89,355.37,19.54,0000 0000 0000 0000 000000
2014-11-28 12:56:40,0.36,4.36,0.07,19.66,24.68,27.70,4.83,27.11,1024.93,2039.99,2054.54,2297.70,2494.68,349.05,353.87,19.57,0000 0000 0000 0000 000000
2014-11-28 13:01:41,0.15,4.37,1.00,19.65,24.66,27.68,4.89,27.03,1024.92,2039.99,2053.26,2296.73,2493.69,350.33,354.88,19.60,0000 0000 0000 0000 000000